Regional Weather Roundup
Issued by NWS

Home | Current Version | Previous Version | Graphics & Text | Print | Product List | Glossary Off
Versions: 1 2 3 4 5 6 7 8 9 10 11 12 13 14 15 16 17 18 19 20 21 22 23 24 25 26 27 28 29 30 31 32 33 34 35 36 37 38 39 40 41 42 43 44 45 46 47 48 49 50

000
ASUS43 KDMX 260906
RWRIA

WEATHER ROUNDUP FOR IOWA
NATIONAL WEATHER SERVICE DES MOINES IA
400 AM CDT FRI MAY 26 2017

NOTE: "FAIR" INDICATES FEW OR NO CLOUDS BELOW 12,000 FEET WITH NO
SIGNIFICANT WEATHER AND/OR OBSTRUCTIONS TO VISIBILITY.

* - THESE STATIONS ARE NOT NWS STATIONS...THUS NOT UNDER NWS
QUALITY CONTROL.  THEY ALSO DO NOT REPORT WEATHER SUCH
AS PRECIPITATION OR FOG.

IAZ001>003-012>014-020>022-031>034-043>046-261000-
   NORTHWEST IOWA

CITY           SKY/WX    TMP DP  RH WIND       PRES   REMARKS
CARROLL *      CLOUDY    59  55  88 SE8       29.67F
CHEROKEE *     CLOUDY    59  55  87 CALM      29.67S
DENISON *      CLOUDY    63  54  72 CALM      29.67F
LE MARS *      CLOUDY    57  54  88 CALM      29.66S
ORANGE CITY *  CLOUDY    59  54  82 CALM      29.66S
SHELDON *      MOCLDY    59  54  82 SE7       29.65S
SIOUX CITY     CLOUDY    59  56  89 E5        29.65S
SPENCER        CLOUDY    60  53  77 S8        29.68S
STORM LAKE *   CLOUDY    59  54  82 SE7       29.68S
$$

IAZ055>058-069>071-079>083-090>094-261000-
   SOUTHWEST IOWA

CITY           SKY/WX    TMP DP  RH WIND       PRES   REMARKS
ATLANTIC *     CLOUDY    64  54  68 CALM      29.65F
AUDUBON *      CLOUDY    57  54  88 CALM      29.67F
CLARINDA *     CLOUDY    63  55  77 E5        29.65F
COUNCIL BLFS * CLOUDY    63  57  82 E6        29.64S
CRESTON *      CLOUDY    61  54  77 SE8       29.68F
HARLAN  *      CLOUDY    63  55  77 CALM      29.68F
LAMONI         CLOUDY    61  53  75 SE6       29.67F
RED OAK *      CLOUDY    63  55  77 NE3       29.64F
SHENANDOAH *   CLOUDY    64  55  72 VRB7      29.63S
$$

IAZ047>049-059>061-072>074-084-261000-
   CENTRAL IOWA

CITY           SKY/WX    TMP DP  RH WIND       PRES   REMARKS
AMES           CLOUDY    58  53  84 SE3       29.70S
ANKENY *       CLOUDY    59  54  82 CALM      29.70F
BOONE *        CLOUDY    59  55  88 E9        29.69S
CHARITON *     MOCLDY    61  54  77 SE9       29.68S
DES MOINES     CLOUDY    62  53  72 E7        29.69S
GRINNELL*      CLEAR     58  51  80 E7        29.73F
KNOXVILLE *    CLOUDY    59  52  77 E7        29.68F
MARSHALLTOWN   CLOUDY    56  52  86 E8        29.71S
NEWTON *       CLOUDY    57  52  82 E9        29.70F
PERRY *        CLOUDY    59  55  85 E7        29.69S
$$

IAZ004>006-015-016-023>025-035-036-261000-
   NORTH CENTRAL IOWA

CITY           SKY/WX    TMP DP  RH WIND       PRES   REMARKS
ALGONA *       CLOUDY    59  52  77 SE12      29.70R
CLARION *      CLEAR     57  52  82 SE13      29.70S
ESTHERVILLE    CLOUDY    57  54  89 S8        29.68S
FORT DODGE *   CLOUDY    57  50  77 SE6       29.70F
MASON CITY     PTCLDY    55  49  80 S8        29.73S
FOREST CITY *    N/A     54  43  66 SE5       29.72R
WEBSTER CITY * CLOUDY    55  52  88 SE9       29.68F
$$

IAZ007>011-017>019-026>030-037>042-050>054-066-261000-
   NORTHEAST IOWA

CITY           SKY/WX    TMP DP  RH WIND       PRES   REMARKS
CEDAR RAPIDS   PTCLDY    55  54  96 E8        29.75S
CHARLES CITY * CLEAR     57  54  88 SE10      29.74S
CLINTON *      PTCLDY    55  53  93 E5        29.80R
DUBUQUE        CLEAR     55  52  89 S3        29.80R
MONTICELLO *   CLOUDY    59  55  88 SE7       29.78S
OELWEIN *      CLOUDY    55  55 100 SE8       29.76S
WATERLOO       PTCLDY    56  51  84 SE6       29.73F
$$

IAZ064-065-067-068-078-261000-
   EAST CENTRAL IOWA

CITY           SKY/WX    TMP DP  RH WIND       PRES   REMARKS
DAVENPORT      MOCLDY    56  53  90 E7        29.79S
IOWA CITY      MOCLDY    60  53  77 CALM      29.77S
MT. PLEASANT * CLOUDY    57  53  86 E6        29.74S
MUSCATINE *    MOCLDY    59  55  88 CALM      29.77S
QUAD CITIES    PTCLDY    58  53  84 E5        29.78R
$$

IAZ062-063-075>077-085>089-095>099-261000-
   SOUTHEAST IOWA

CITY           SKY/WX    TMP DP  RH WIND       PRES   REMARKS
BURLINGTON     CLOUDY    60  54  80 SE5       29.75S
FAIRFIELD *    CLOUDY    59  52  77 E9        29.73R
FORT MADISON * CLOUDY    63  54  72 SE8       29.75S
KEOKUK *       PTCLDY    59  55  88 E7        29.73S
OSKALOOSA *      N/A     58  52  80 E8        29.72S
CENTERVILLE *    N/A     57  54  88 CALM      29.71S
OTTUMWA        CLOUDY    59  54  83 E8        29.71S
WASHINGTON *   CLOUDY    57  54  88 E8        29.76S
$$

ABBREVIATIONS USED IN REMARKS
   TC - TEMPERATURES IN CELSIUS
  WCI - WIND CHILL INDEX
   HX - HEAT INDEX
  VSB - VISIBILITY
$$





USA.gov is the U.S. government's official web portal to all federal, state and local government web resources and services.